This demonstration page uses our WeatherBlox Daily Observations layout. Learn more.

Left ArrowRight Arrow

40.92945, -100.16068

Hourly Observations for February 29, 2020

Temp ( °F °C ) Dew Point ( °F °C ) Humidity (%) Winds ( mph kmh ) Pressure ( in mb ) Visibility ( mi km ) Precip ( " mm )
12:15 am 00:15 Clear 28 -2.4 26 -3.5 92 92 N N/A 30.27 1025 10 16 N/A
12:35 am 00:35 Clear 28 -2.2 26 -3.2 93 93 N N/A 30.27 1025 10 16 N/A
12:55 am 00:55 Clear 27 -2.7 25 -3.7 93 93 N N/A 30.26 1025 10 16 N/A
1:15 am 01:15 Clear 27 -2.6 25 -3.9 91 91 N N/A 30.26 1025 10 16 N/A
1:35 am 01:35 Clear 27 -2.6 25 -4 90 90 N N/A 30.25 1025 10 16 N/A
1:55 am 01:55 Clear 26 -3.2 24 -4.5 91 91 E 3 6 30.25 1024 10 16 N/A
2:15 am 02:15 Clear 27 -2.9 24 -4.2 91 91 ENE 3 6 30.24 1024 10 16 N/A
2:35 am 02:35 Clear 26 -3.3 24 -4.6 91 91 N N/A 30.24 1024 10 16 N/A
2:55 am 02:55 Clear 31 -0.6 25 -4 78 78 SSE 5 7 30.20 1023 10 16 N/A
3:15 am 03:15 Clear 31 -0.7 24 -4.4 76 76 S 5 7 30.18 1022 10 16 N/A
3:35 am 03:35 Clear 32 0.1 25 -4.1 74 74 SSE 3 6 30.17 1022 10 16 N/A
3:55 am 03:55 Clear 32 undefined 24 -4.4 73 73 SSE 5 7 30.16 1021 10 16 N/A
4:15 am 04:15 Clear 31 -0.6 24 -4.4 76 76 SSE 6 9 30.15 1021 10 16 N/A
4:35 am 04:35 Clear 31 -0.6 25 -4.1 77 77 SSE 6 9 30.14 1021 10 16 N/A
4:55 am 04:55 Clear 31 -0.5 25 -4.1 77 77 SE 6 9 30.13 1020 10 16 N/A
5:15 am 05:15 Clear 30 -0.9 24 -4.3 78 78 ESE 5 7 30.14 1021 10 16 N/A
5:35 am 05:35 Clear 28 -2.5 24 -4.5 86 86 E 6 9 30.15 1021 10 16 N/A
5:55 am 05:55 Clear 27 -2.6 24 -4.7 86 86 E 6 9 30.14 1021 10 16 N/A
6:15 am 06:15 Clear 28 -2.5 24 -4.5 86 86 ESE 3 6 30.13 1020 10 16 N/A
6:35 am 06:35 Clear 28 -2.3 24 -4.6 84 84 ESE 5 7 30.12 1020 10 16 N/A
6:55 am 06:55 Clear 27 -3 23 -4.8 88 88 SE 5 7 30.12 1020 10 16 N/A
7:15 am 07:15 Sunny 32 0.1 26 -3.6 76 76 ESE 3 6 30.09 1019 10 16 N/A
7:35 am 07:35 Sunny 34 1 26 -3.2 74 74 E 3 6 30.08 1019 10 16 N/A
7:55 am 07:55 Sunny 35 1.4 27 -2.8 74 74 N N/A 30.07 1018 10 16 N/A
8:15 am 08:15 Sunny 35 1.9 27 -2.6 72 72 N N/A 30.06 1018 10 16 N/A
8:35 am 08:35 Sunny 36 2.3 29 -1.8 75 75 SE 5 7 30.04 1017 10 16 N/A
8:55 am 08:55 Sunny 38 3.1 30 -1.3 73 73 SSE 5 7 30.04 1017 10 16 N/A
9:15 am 09:15 Sunny 39 3.8 30 -1 71 71 SSE 6 9 30.02 1017 10 16 N/A
9:35 am 09:35 Sunny 40 4.6 30 -0.9 68 68 S 12 19 30.00 1016 10 16 N/A
9:55 am 09:55 Sunny 42 5.6 30 -1 63 63 S 12 19 29.97 1015 10 16 N/A
10:15 am 10:15 Sunny 43 6.2 30 -1 60 60 S 12 19 29.96 1014 10 16 N/A
10:35 am 10:35 Sunny 45 7 30 -1 57 57 SSW 12 19 29.95 1014 10 16 N/A
10:55 am 10:55 Sunny 44 6.7 30 -0.9 59 59 SSW 13 20 29.94 1014 10 16 N/A
11:15 am 11:15 Sunny 45 7.4 30 -0.9 56 56 S 10 17 29.93 1013 10 16 N/A
11:35 am 11:35 Sunny 46 7.7 31 -0.5 56 56 S 12 19 29.90 1013 10 16 N/A
11:55 am 11:55 Sunny 47 8.2 32 undefined 57 57 S 15 24 29.89 1012 10 16 N/A
12:15 pm 12:15 Sunny 47 8.3 32 0.2 57 57 SSW 12 19 29.88 1012 10 16 N/A
12:35 pm 12:35 Sunny 48 8.7 33 0.8 58 58 S 12 19 29.86 1011 10 16 N/A
12:55 pm 12:55 Sunny 49 9.6 34 1.2 56 56 SSW 9 15 29.84 1011 10 16 N/A
1:15 pm 13:15 Sunny 51 10.5 35 1.7 55 55 S 10 17 29.83 1010 10 16 N/A
1:35 pm 13:35 Sunny 51 10.8 36 2 55 55 S 12 19 29.79 1009 10 16 N/A
1:55 pm 13:55 Sunny 53 11.8 36 2.3 52 52 S 10 17 29.76 1008 10 16 N/A
2:15 pm 14:15 Sunny 54 12.1 36 2.1 51 51 S 13 20 29.75 1008 10 16 N/A
2:35 pm 14:35 Sunny 54 12.4 36 2.4 51 51 S 13 20 29.75 1007 10 16 N/A
2:55 pm 14:55 Sunny 57 14 36 2 44 44 SSW 14 22 29.73 1007 10 16 N/A
3:15 pm 15:15 Sunny 57 14 35 1.9 44 44 SSW 14 22 29.73 1007 10 16 N/A
3:35 pm 15:35 Sunny 56 13.5 36 2.4 47 47 SSW 9 15 29.73 1007 10 16 N/A
3:55 pm 15:55 Sunny 58 14.3 37 2.5 45 45 SSW 10 17 29.71 1006 10 16 N/A
4:15 pm 16:15 Sunny 58 14.6 37 3 46 46 S 9 15 29.70 1006 10 16 N/A
4:35 pm 16:35 Sunny 57 14 38 3.1 48 48 S 6 9 29.71 1006 10 16 N/A
4:55 pm 16:55 Sunny 58 14.6 37 2.9 46 46 S 7 11 29.70 1006 10 16 N/A
5:15 pm 17:15 Sunny 56 13.5 37 2.9 49 49 SSE 7 11 29.70 1006 10 16 N/A
5:35 pm 17:35 Sunny 55 12.7 38 3.1 52 52 SSE 6 9 29.71 1006 10 16 N/A
5:55 pm 17:55 Sunny 55 12.5 37 2.6 51 51 SSE 5 7 29.71 1006 10 16 N/A
6:15 pm 18:15 Sunny 53 11.4 36 2.4 54 54 S 6 9 29.72 1006 10 16 N/A
6:35 pm 18:35 Clear 50 10.1 37 2.5 60 60 S 3 6 29.73 1007 10 16 N/A
6:55 pm 18:55 Clear 50 10 35 1.9 57 57 N N/A 29.73 1007 10 16 N/A
7:15 pm 19:15 Clear 52 11.1 34 1.1 50 50 S 3 6 29.72 1006 10 16 N/A
7:35 pm 19:35 Clear 48 9.1 34 0.9 57 57 S 3 6 29.74 1007 10 16 N/A
7:55 pm 19:55 Clear 47 8.6 33 0.8 58 58 S 3 6 29.74 1007 10 16 N/A
8:15 pm 20:15 Clear 47 8.5 33 0.5 57 57 S 5 7 29.73 1007 10 16 N/A
8:35 pm 20:35 Clear 46 7.7 33 0.4 60 60 SSW 3 6 29.74 1007 10 16 N/A
8:55 pm 20:55 Clear 44 6.8 33 0.3 64 64 N N/A 29.75 1007 10 16 N/A
9:15 pm 21:15 Clear 40 4.3 32 0.2 75 75 N N/A 29.76 1008 10 16 N/A
9:35 pm 21:35 Clear 37 2.5 32 undefined 84 84 WNW 3 6 29.79 1009 10 16 N/A
9:55 pm 21:55 Clear 35 1.5 31 -0.3 88 88 NNW 7 11 29.79 1009 10 16 N/A
10:15 pm 22:15 Clear 36 2.4 31 -0.5 81 81 WNW 5 7 29.78 1009 10 16 N/A
10:35 pm 22:35 Clear 37 2.6 31 -0.5 80 80 NW 7 11 29.78 1008 10 16 N/A
10:55 pm 22:55 Clear 34 1.2 31 -0.8 87 87 WNW 3 6 29.79 1009 10 16 N/A
11:15 pm 23:15 Clear 36 2.1 31 -0.7 82 82 NW 5 7 29.78 1008 10 16 N/A
11:35 pm 23:35 Clear 35 1.4 31 -0.8 85 85 NW 6 9 29.78 1009 10 16 N/A
11:55 pm 23:55 Clear 36 2.1 31 -0.8 81 81 NW 6 9 29.78 1008 10 16 N/A

Powered by AerisWeather